When you browse on this site, cookies collect data to enhance your experience and personalize the content and advertising you see.
Visit our Privacy Policy to learn more. By continuing to use the site, you agree to this use of cookies and data.
  • In Österreich
  • Länderverzeichnis
  • Für 7 Tage
  • Wassertemperatur
  • Satellitenkarten
  • Wetterkarte
  • News
  • Widgets
  • user-avatar
    Anmelden

    Stündliche Wetter Poplyahny

    Heute, 18 Februar, Montag

    Zeit Temperatur Niederschläge Wind Luftdruck Luftfeuchtigkeit
    00:00 -4°C° 0 mm 4 m/S 755 mmHg 80%
    01:00 -4°C° 0 mm 3 m/S 755 mmHg 81%
    02:00 -5°C° 0 mm 3 m/S 756 mmHg 82%
    03:00 -5°C° 0 mm 3 m/S 756 mmHg 84%
    04:00 -4°C° 0 mm 2 m/S 757 mmHg 85%
    05:00 -5°C° 0 mm 2 m/S 757 mmHg 86%
    06:00 -5°C° 0 mm 2 m/S 758 mmHg 86%
    07:00 -5°C° 0 mm 2 m/S 758 mmHg 87%
    08:00 -5°C° 0 mm 2 m/S 759 mmHg 87%
    09:00 -4°C° 0 mm 2 m/S 759 mmHg 82%
    10:00 -2°C° 0 mm 1 m/S 759 mmHg 77%
    11:00 -1°C° 0 mm 1 m/S 760 mmHg 72%
    12:00 0°C° 0 mm 1 m/S 760 mmHg 68%
    13:00 0°C° 0 mm 1 m/S 760 mmHg 65%
    14:00 +1°C° 0 mm 1 m/S 760 mmHg 61%
    15:00 0°C° 0 mm 1 m/S 759 mmHg 65%
    16:00 -1°C° 0 mm 1 m/S 759 mmHg 69%
    17:00 -2°C° 0 mm 1 m/S 759 mmHg 73%
    18:00 -2°C° 0 mm 1 m/S 759 mmHg 74%
    19:00 -4°C° 0 mm 2 m/S 759 mmHg 76%
    20:00 -4°C° 0 mm 2 m/S 759 mmHg 77%
    21:00 -4°C° 0 mm 2 m/S 758 mmHg 76%
    22:00 -5°C° 0 mm 3 m/S 758 mmHg 75%
    23:00 -5°C° 0 mm 3 m/S 758 mmHg 74%

    Morgen, 19 Februar, Dienstag

    Zeit Temperatur Niederschläge Wind Luftdruck Luftfeuchtigkeit
    00:00 -4°C° 0 mm 3 m/S 757 mmHg 73%
    01:00 -4°C° 0 mm 4 m/S 757 mmHg 72%
    02:00 -4°C° 0 mm 4 m/S 756 mmHg 71%
    03:00 -4°C° 0 mm 4 m/S 756 mmHg 72%
    04:00 -4°C° 0 mm 4 m/S 755 mmHg 74%
    05:00 -4°C° 0 mm 4 m/S 754 mmHg 75%
    06:00 -3°C° 0 mm 4 m/S 754 mmHg 77%
    07:00 -3°C° 0 mm 4 m/S 754 mmHg 78%
    08:00 -4°C° 0 mm 5 m/S 753 mmHg 79%
    09:00 -2°C° 0 mm 5 m/S 753 mmHg 77%
    10:00 -1°C° 0 mm 5 m/S 752 mmHg 75%
    11:00 0°C° 0 mm 5 m/S 752 mmHg 73%
    12:00 +1°C° 0 mm 5 m/S 751 mmHg 74%
    13:00 +1°C° 0 mm 5 m/S 751 mmHg 74%
    14:00 +1°C° 0 mm 5 m/S 750 mmHg 75%
    15:00 +1°C° 0 mm 5 m/S 749 mmHg 78%
    16:00 0°C° 0 mm 4 m/S 749 mmHg 81%
    17:00 0°C° 0 mm 4 m/S 748 mmHg 83%
    18:00 0°C° 0 mm 4 m/S 747 mmHg 85%
    19:00 0°C° 0 mm 5 m/S 747 mmHg 86%
    20:00 -1°C° 0 mm 5 m/S 746 mmHg 87%
    21:00 0°C° 0 mm 5 m/S 746 mmHg 88%
    22:00 0°C° 0 mm 5 m/S 745 mmHg 88%
    23:00 0°C° 0 mm 5 m/S 744 mmHg 88%

    übermorgen, 20 Februar, Mittwoch

    Zeit Temperatur Niederschläge Wind Luftdruck Luftfeuchtigkeit
    00:00 0°C° 0.1 mm 5 m/S 743 mmHg 88%
    01:00 0°C° 0.1 mm 5 m/S 743 mmHg 88%
    02:00 0°C° 0.1 mm 5 m/S 743 mmHg 88%
    03:00 +1°C° 0.3 mm 5 m/S 742 mmHg 89%
    04:00 +1°C° 0.3 mm 4 m/S 742 mmHg 89%
    05:00 +1°C° 0.3 mm 4 m/S 742 mmHg 90%
    06:00 +1°C° 0 mm 4 m/S 742 mmHg 89%
    07:00 +1°C° 0 mm 4 m/S 742 mmHg 88%
    08:00 +1°C° 0 mm 4 m/S 742 mmHg 88%
    09:00 +1°C° 0.1 mm 4 m/S 742 mmHg 85%
    10:00 +1°C° 0.1 mm 4 m/S 742 mmHg 82%
    11:00 +2°C° 0.1 mm 5 m/S 742 mmHg 79%
    12:00 +2°C° 0 mm 5 m/S 741 mmHg 79%
    13:00 +2°C° 0 mm 5 m/S 741 mmHg 79%
    14:00 +2°C° 0 mm 5 m/S 741 mmHg 79%
    15:00 +1°C° 0.3 mm 5 m/S 741 mmHg 80%
    16:00 +1°C° 0.3 mm 5 m/S 741 mmHg 81%
    17:00 +1°C° 0.3 mm 5 m/S 740 mmHg 83%
    18:00 -1°C° 0.1 mm 5 m/S 741 mmHg 79%
    19:00 -2°C° 0.1 mm 5 m/S 741 mmHg 75%
    20:00 -3°C° 0.1 mm 4 m/S 741 mmHg 71%
    21:00 -4°C° 0.1 mm 5 m/S 741 mmHg 73%
    22:00 -4°C° 0.1 mm 5 m/S 742 mmHg 75%
    23:00 -5°C° 0.1 mm 6 m/S 742 mmHg 77%

    21 Februar, Donnerstag

    Zeit Temperatur Niederschläge Wind Luftdruck Luftfeuchtigkeit
    00:00 -5°C° 0.2 mm 6 m/S 742 mmHg 77%
    01:00 -5°C° 0.2 mm 6 m/S 742 mmHg 77%
    02:00 -5°C° 0.2 mm 6 m/S 743 mmHg 77%
    03:00 -5°C° 0.1 mm 6 m/S 743 mmHg 76%
    04:00 -5°C° 0.1 mm 6 m/S 743 mmHg 75%
    05:00 -5°C° 0.1 mm 6 m/S 744 mmHg 74%
    06:00 -5°C° 0.1 mm 6 m/S 744 mmHg 71%
    07:00 -6°C° 0.1 mm 6 m/S 745 mmHg 69%
    08:00 -7°C° 0.1 mm 7 m/S 746 mmHg 67%
    09:00 -8°C° 0.1 mm 7 m/S 747 mmHg 66%
    10:00 -8°C° 0.1 mm 7 m/S 748 mmHg 66%
    11:00 -8°C° 0.1 mm 7 m/S 748 mmHg 65%
    12:00 -7°C° 0 mm 7 m/S 749 mmHg 64%
    13:00 -7°C° 0 mm 7 m/S 750 mmHg 62%
    14:00 -7°C° 0 mm 7 m/S 751 mmHg 61%
    15:00 -8°C° 0 mm 6 m/S 752 mmHg 63%
    16:00 -8°C° 0 mm 6 m/S 752 mmHg 64%
    17:00 -8°C° 0 mm 6 m/S 753 mmHg 66%
    18:00 -9°C° 0 mm 6 m/S 754 mmHg 66%
    19:00 -9°C° 0 mm 6 m/S 755 mmHg 65%
    20:00 -10°C° 0 mm 6 m/S 756 mmHg 65%
    21:00 -10°C° 0 mm 5 m/S 757 mmHg 65%
    22:00 -10°C° 0 mm 5 m/S 758 mmHg 65%
    23:00 -11°C° 0 mm 5 m/S 759 mmHg 65%

    22 Februar, Freitag

    Zeit Temperatur Niederschläge Wind Luftdruck Luftfeuchtigkeit
    00:00 -11°C° 0 mm 5 m/S 759 mmHg 65%
    01:00 -12°C° 0 mm 5 m/S 760 mmHg 65%
    02:00 -12°C° 0 mm 5 m/S 761 mmHg 66%
    03:00 -12°C° 0 mm 5 m/S 762 mmHg 67%
    04:00 -11°C° 0 mm 4 m/S 762 mmHg 68%
    05:00 -11°C° 0 mm 4 m/S 763 mmHg 69%
    06:00 -11°C° 0 mm 4 m/S 764 mmHg 70%
    07:00 -11°C° 0 mm 4 m/S 764 mmHg 71%
    08:00 -11°C° 0 mm 4 m/S 765 mmHg 72%
    09:00 -11°C° 0 mm 4 m/S 765 mmHg 68%
    10:00 -10°C° 0 mm 4 m/S 766 mmHg 64%
    11:00 -10°C° 0 mm 5 m/S 766 mmHg 61%
    12:00 -10°C° 0 mm 5 m/S 767 mmHg 58%
    13:00 -8°C° 0 mm 5 m/S 767 mmHg 56%
    14:00 -8°C° 0 mm 5 m/S 767 mmHg 54%
    15:00 -8°C° 0 mm 4 m/S 768 mmHg 57%
    16:00 -8°C° 0 mm 4 m/S 768 mmHg 60%
    17:00 -9°C° 0 mm 4 m/S 769 mmHg 63%
    18:00 -8°C° 0 mm 3 m/S 769 mmHg 66%
    19:00 -9°C° 0 mm 3 m/S 769 mmHg 68%
    20:00 -9°C° 0 mm 3 m/S 770 mmHg 71%
    21:00 -9°C° 0 mm 3 m/S 770 mmHg 73%
    22:00 -9°C° 0 mm 2 m/S 770 mmHg 76%
    23:00 -8°C° 0 mm 1 m/S 771 mmHg 78%

    23 Februar, Samstag

    Zeit Temperatur Niederschläge Wind Luftdruck Luftfeuchtigkeit
    00:00 -8°C° 0 mm 1 m/S 770 mmHg 78%
    01:00 -8°C° 0 mm 1 m/S 770 mmHg 77%
    02:00 -8°C° 0 mm 1 m/S 770 mmHg 77%
    03:00 -8°C° 0 mm 1 m/S 770 mmHg 73%
    04:00 -7°C° 0 mm 1 m/S 770 mmHg 69%
    05:00 -8°C° 0 mm 2 m/S 769 mmHg 66%
    06:00 -7°C° 0 mm 2 m/S 769 mmHg 62%
    07:00 -8°C° 0 mm 3 m/S 768 mmHg 59%
    08:00 -7°C° 0 mm 3 m/S 768 mmHg 55%
    09:00 -8°C° 0.1 mm 4 m/S 767 mmHg 62%
    10:00 -8°C° 0.1 mm 4 m/S 766 mmHg 69%
    11:00 -8°C° 0.1 mm 5 m/S 766 mmHg 76%
    12:00 -7°C° 0.2 mm 4 m/S 765 mmHg 78%
    13:00 -7°C° 0.2 mm 4 m/S 765 mmHg 80%
    14:00 -7°C° 0.2 mm 4 m/S 764 mmHg 82%
    15:00 -7°C° 0.3 mm 4 m/S 764 mmHg 83%
    16:00 -5°C° 0.3 mm 3 m/S 763 mmHg 85%
    17:00 -5°C° 0.3 mm 3 m/S 763 mmHg 86%
    18:00 -5°C° 0.1 mm 3 m/S 763 mmHg 87%
    19:00 -4°C° 0.1 mm 2 m/S 763 mmHg 87%
    20:00 -4°C° 0.1 mm 2 m/S 763 mmHg 88%
    21:00 -3°C° 0 mm 2 m/S 762 mmHg 88%
    22:00 -3°C° 0 mm 2 m/S 762 mmHg 88%
    23:00 -3°C° 0 mm 2 m/S 762 mmHg 88%
    Mehr zeigen